Location: Newark
(49.8969°N, 3.3422°E)
Time: 21:05:36
(UTC+00:00)

deb Explorer IX - Pass Details

Date: 26 January 2020
Orbit: 549 x 1099 km, 38.8° (Epoch: 22 February)

Event Time Altitude Azimuth Distance (km) Brightness Sun altitude
Rises 22:32:24 0° 244° (WSW) 3,793 - -54.3°
Reaches altitude 10° 22:35:19 10° 235° (SW) 2,889 - -54.6°
Maximum altitude 22:41:34 33° 174° (S) 1,741 - -55.1°
Drops below altitude 10° 22:47:54 10° 114° (ESE) 2,931 - -55.7°
Sets 22:50:52 0° 105° (ESE) 3,855 - -55.9°
